Time,TemperatureF,DewpointF,PressureIn,WindDirection,WindDirectionDegrees,WindSpeedMPH,WindSpeedGustMPH,Humidity,HourlyPrecipIn,Conditions,Clouds,dailyrainin,SoftwareType,DateUTC
2013-07-21 00:02:00,64.0,57.0,29.96,ENE,73,0.0,0.0,78,0.00,,,0.01,,2013-07-21 05:02:00,
2013-07-21 00:11:00,64.0,57.0,29.96,East,80,0.0,0.0,78,0.00,,,0.01,,2013-07-21 05:11:00,
2013-07-21 00:22:00,64.0,57.0,29.96,North,1,0.0,0.0,79,0.00,,,0.01,,2013-07-21 05:22:00,
2013-07-21 00:32:00,64.0,57.0,29.96,North,1,0.0,0.0,79,0.00,,,0.01,,2013-07-21 05:32:00,
2013-07-21 00:42:00,63.0,57.0,29.97,North,1,0.0,0.0,81,0.00,,,0.01,,2013-07-21 05:42:00,
2013-07-21 00:52:00,63.0,57.0,29.96,North,1,0.0,0.0,81,0.00,,,0.01,,2013-07-21 05:52:00,
2013-07-21 01:01:00,63.0,57.0,29.96,ENE,63,0.0,0.0,81,0.00,,,0.01,,2013-07-21 06:01:00,
2013-07-21 01:11:00,64.0,58.0,29.97,NNW,332,0.0,0.0,80,0.00,,,0.01,,2013-07-21 06:11:00,
2013-07-21 01:22:00,65.0,59.0,29.97,NE,40,0.0,0.0,80,0.00,,,0.01,,2013-07-21 06:22:00,
2013-07-21 01:32:00,65.0,58.0,29.97,ENE,65,0.0,0.0,79,0.00,,,0.01,,2013-07-21 06:32:00,
2013-07-21 01:42:00,66.0,59.0,29.97,East,80,0.0,3.0,77,0.00,,,0.01,,2013-07-21 06:42:00,
2013-07-21 01:52:00,66.0,58.0,29.96,ENE,61,0.0,3.0,76,0.00,,,0.01,,2013-07-21 06:52:00,
2013-07-21 02:01:00,66.0,58.0,29.96,ENE,73,0.0,1.0,76,0.00,,,0.01,,2013-07-21 07:01:00,
2013-07-21 02:11:00,66.0,58.0,29.96,East,83,0.0,4.0,75,0.00,,,0.01,,2013-07-21 07:11:00,
2013-07-21 02:22:00,66.0,58.0,29.96,ENE,78,0.0,2.0,76,0.00,,,0.01,,2013-07-21 07:22:00,
2013-07-21 02:32:00,65.0,57.0,29.96,East,91,0.0,3.0,76,0.00,,,0.01,,2013-07-21 07:32:00,
2013-07-21 02:43:00,65.0,57.0,29.96,East,82,0.0,1.0,76,0.00,,,0.01,,2013-07-21 07:43:00,
2013-07-21 02:52:00,65.0,57.0,29.96,East,93,0.0,0.0,76,0.00,,,0.01,,2013-07-21 07:52:00,
2013-07-21 03:01:00,65.0,58.0,29.96,East,98,0.0,1.0,77,0.00,,,0.01,,2013-07-21 08:01:00,
2013-07-21 03:11:00,64.0,57.0,29.96,ENE,71,0.0,0.0,77,0.00,,,0.01,,2013-07-21 08:11:00,
2013-07-21 03:22:00,65.0,58.0,29.96,ENE,68,0.0,3.0,77,0.00,,,0.01,,2013-07-21 08:22:00,
2013-07-21 03:33:00,65.0,58.0,29.96,East,79,0.0,1.0,78,0.00,,,0.01,,2013-07-21 08:33:00,
2013-07-21 03:43:00,64.0,57.0,29.96,ENE,73,0.0,0.0,78,0.00,,,0.01,,2013-07-21 08:43:00,
2013-07-21 03:52:00,64.0,57.0,29.96,ENE,77,0.0,1.0,78,0.00,,,0.01,,2013-07-21 08:52:00,
2013-07-21 04:02:00,63.0,57.0,29.96,ENE,78,0.0,0.0,80,0.00,,,0.01,,2013-07-21 09:02:00,
2013-07-21 04:12:00,63.0,56.0,29.96,ENE,77,0.0,0.0,79,0.00,,,0.01,,2013-07-21 09:12:00,
2013-07-21 04:22:00,63.0,56.0,29.96,South,190,0.0,0.0,79,0.00,,,0.01,,2013-07-21 09:22:00,
2013-07-21 04:32:00,63.0,56.0,29.95,South,191,0.0,0.0,79,0.00,,,0.01,,2013-07-21 09:32:00,
2013-07-21 04:42:00,62.0,56.0,29.95,East,84,0.0,0.0,80,0.00,,,0.01,,2013-07-21 09:42:00,
2013-07-21 04:52:00,62.0,56.0,29.95,East,84,0.0,0.0,80,0.00,,,0.01,,2013-07-21 09:52:00,
2013-07-21 05:02:00,62.0,56.0,29.95,East,84,0.0,0.0,80,0.00,,,0.01,,2013-07-21 10:02:00,
2013-07-21 05:11:00,62.0,56.0,29.95,East,84,0.0,0.0,80,0.00,,,0.01,,2013-07-21 10:11:00,
2013-07-21 05:22:00,62.0,55.0,29.96,ENE,77,0.0,0.0,78,0.00,,,0.01,,2013-07-21 10:22:00,
2013-07-21 05:32:00,63.0,55.0,29.96,NE,49,0.0,0.0,76,0.00,,,0.01,,2013-07-21 10:32:00,
2013-07-21 05:43:00,63.0,55.0,29.96,NW,316,0.0,0.0,75,0.00,,,0.01,,2013-07-21 10:43:00,
2013-07-21 05:52:00,63.0,55.0,29.96,ENE,65,0.0,0.0,74,0.00,,,0.01,,2013-07-21 10:52:00,
2013-07-21 06:02:00,63.0,55.0,29.96,ENE,65,0.0,0.0,75,0.00,,,0.01,,2013-07-21 11:02:00,
2013-07-21 06:12:00,63.0,55.0,29.97,East,89,0.0,0.0,75,0.00,,,0.01,,2013-07-21 11:12:00,
2013-07-21 06:22:00,63.0,55.0,29.97,NE,44,0.0,0.0,76,0.00,,,0.01,,2013-07-21 11:22:00,
2013-07-21 06:33:00,64.0,57.0,29.97,ENE,70,0.0,0.0,78,0.00,,,0.01,,2013-07-21 11:33:00,
2013-07-21 06:43:00,64.0,57.0,29.97,ENE,70,0.0,0.0,77,0.00,,,0.01,,2013-07-21 11:43:00,
2013-07-21 06:52:00,64.0,57.0,29.97,East,93,0.0,0.0,77,0.00,,,0.01,,2013-07-21 11:52:00,
2013-07-21 07:01:00,66.0,58.0,29.98,ENE,70,0.0,0.0,75,0.00,,,0.01,,2013-07-21 12:01:00,
2013-07-21 07:11:00,67.0,58.0,29.98,ENE,68,0.0,0.0,74,0.00,,,0.01,,2013-07-21 12:11:00,
2013-07-21 07:22:00,67.0,58.0,29.98,ESE,107,0.0,0.0,74,0.00,,,0.01,,2013-07-21 12:22:00,
2013-07-21 07:32:00,67.0,57.0,29.97,ENE,61,1.0,3.0,70,0.00,,,0.01,,2013-07-21 12:32:00,
2013-07-21 07:43:00,68.0,57.0,29.98,NE,41,0.0,6.0,69,0.00,,,0.01,,2013-07-21 12:43:00,
2013-07-21 07:53:00,68.0,57.0,29.98,North,11,0.0,1.0,68,0.00,,,0.01,,2013-07-21 12:53:00,
2013-07-21 08:01:00,69.0,56.0,29.98,ENE,67,1.0,4.0,64,0.00,,,0.01,,2013-07-21 13:01:00,
2013-07-21 08:12:00,69.0,57.0,29.98,ENE,66,0.0,0.0,66,0.00,,,0.01,,2013-07-21 13:12:00,
2013-07-21 08:22:00,70.0,59.0,29.97,NNW,333,0.0,4.0,67,0.00,,,0.01,,2013-07-21 13:22:00,
2013-07-21 08:32:00,70.0,59.0,29.98,ENE,70,1.0,9.0,69,0.00,,,0.01,,2013-07-21 13:32:00,
2013-07-21 08:42:00,71.0,60.0,29.98,WSW,242,0.0,2.0,69,0.00,,,0.01,,2013-07-21 13:42:00,
2013-07-21 08:52:00,71.0,61.0,29.98,NE,53,1.0,6.0,71,0.00,,,0.01,,2013-07-21 13:52:00,
2013-07-21 09:01:00,71.0,61.0,29.97,East,83,1.0,5.0,71,0.00,,,0.01,,2013-07-21 14:01:00,
2013-07-21 09:12:00,72.0,63.0,29.97,NE,38,0.0,6.0,73,0.00,,,0.01,,2013-07-21 14:12:00,
2013-07-21 09:22:00,72.0,62.0,29.97,ENE,68,1.0,4.0,71,0.00,,,0.01,,2013-07-21 14:22:00,
2013-07-21 09:32:00,72.0,62.0,29.98,East,83,1.0,5.0,71,0.00,,,0.01,,2013-07-21 14:32:00,
2013-07-21 09:43:00,73.0,63.0,29.98,SSE,152,0.0,6.0,70,0.00,,,0.01,,2013-07-21 14:43:00,
2013-07-21 09:53:00,73.0,62.0,29.98,NE,49,1.0,6.0,69,0.00,,,0.01,,2013-07-21 14:53:00,
2013-07-21 10:02:00,73.0,62.0,29.98,NE,49,1.0,6.0,69,0.00,,,0.01,,2013-07-21 15:02:00,
2013-07-21 10:11:00,74.0,62.0,29.97,SSW,198,0.0,9.0,66,0.00,,,0.01,,2013-07-21 15:11:00,
2013-07-21 10:22:00,74.0,63.0,29.97,NNE,24,1.0,5.0,69,0.00,,,0.01,,2013-07-21 15:22:00,
2013-07-21 10:32:00,74.0,63.0,29.98,ENE,64,0.0,5.0,69,0.00,,,0.01,,2013-07-21 15:32:00,
2013-07-21 10:43:00,75.0,64.0,29.98,ESE,108,0.0,6.0,68,0.00,,,0.01,,2013-07-21 15:43:00,
2013-07-21 10:53:00,76.0,63.0,29.98,ENE,70,1.0,4.0,64,0.00,,,0.01,,2013-07-21 15:53:00,
2013-07-21 11:01:00,76.0,63.0,29.98,SSW,201,1.0,6.0,64,0.00,,,0.01,,2013-07-21 16:01:00,
2013-07-21 11:11:00,76.0,63.0,29.98,ENE,77,1.0,7.0,65,0.00,,,0.01,,2013-07-21 16:11:00,
2013-07-21 11:22:00,75.0,61.0,29.98,East,94,0.0,6.0,62,0.00,,,0.01,,2013-07-21 16:22:00,
2013-07-21 11:32:00,76.0,63.0,29.98,East,86,0.0,3.0,64,0.00,,,0.01,,2013-07-21 16:32:00,
2013-07-21 11:43:00,77.0,63.0,29.98,ENE,74,0.0,5.0,62,0.00,,,0.01,,2013-07-21 16:43:00,
2013-07-21 11:52:00,78.0,63.0,29.98,East,89,0.0,7.0,60,0.00,,,0.01,,2013-07-21 16:52:00,
2013-07-21 12:02:00,78.0,62.0,29.97,ESE,122,1.0,6.0,59,0.00,,,0.01,,2013-07-21 17:02:00,
2013-07-21 12:11:00,79.0,64.0,29.98,ENE,74,2.0,9.0,60,0.00,,,0.01,,2013-07-21 17:11:00,
2013-07-21 12:22:00,79.0,64.0,29.97,ENE,62,0.0,5.0,61,0.00,,,0.01,,2013-07-21 17:22:00,
2013-07-21 12:33:00,78.0,64.0,29.97,SSW,197,1.0,5.0,62,0.00,,,0.01,,2013-07-21 17:33:00,
2013-07-21 12:43:00,79.0,65.0,29.97,SSE,155,0.0,2.0,63,0.00,,,0.01,,2013-07-21 17:43:00,
2013-07-21 12:53:00,80.0,66.0,29.96,SSW,193,0.0,5.0,63,0.00,,,0.01,,2013-07-21 17:53:00,
2013-07-21 13:01:00,79.0,67.0,29.96,SSE,154,2.0,6.0,66,0.00,,,0.01,,2013-07-21 18:01:00,
2013-07-21 13:11:00,78.0,67.0,29.96,ENE,74,2.0,7.0,68,0.00,,,0.01,,2013-07-21 18:11:00,
2013-07-21 13:22:00,79.0,67.0,29.95,ENE,58,2.0,6.0,67,0.00,,,0.01,,2013-07-21 18:22:00,
2013-07-21 13:32:00,78.0,67.0,29.95,NE,53,3.0,9.0,68,0.00,,,0.01,,2013-07-21 18:32:00,
2013-07-21 13:43:00,77.0,66.0,29.95,SSE,164,2.0,9.0,70,0.00,,,0.01,,2013-07-21 18:43:00,
2013-07-21 13:52:00,77.0,66.0,29.95,ENE,70,3.0,8.0,70,0.00,,,0.01,,2013-07-21 18:52:00,
2013-07-21 14:01:00,77.0,67.0,29.94,ENE,58,2.0,7.0,71,0.00,,,0.01,,2013-07-21 19:01:00,
2013-07-21 14:11:00,77.0,67.0,29.94,ESE,123,0.0,5.0,72,0.00,,,0.01,,2013-07-21 19:11:00,
2013-07-21 14:22:00,76.0,66.0,29.94,NW,305,2.0,6.0,72,0.00,,,0.01,,2013-07-21 19:22:00,
2013-07-21 14:32:00,76.0,66.0,29.93,ENE,74,4.0,8.0,72,0.00,,,0.01,,2013-07-21 19:32:00,
2013-07-21 14:42:00,77.0,67.0,29.93,ENE,64,3.0,8.0,72,0.00,,,0.01,,2013-07-21 19:42:00,
2013-07-21 14:52:00,77.0,67.0,29.93,SSE,147,1.0,6.0,72,0.00,,,0.01,,2013-07-21 19:52:00,
2013-07-21 15:01:00,78.0,68.0,29.92,ENE,65,0.0,4.0,71,0.00,,,0.01,,2013-07-21 20:01:00,
2013-07-21 15:11:00,77.0,68.0,29.92,NE,56,0.0,6.0,73,0.00,,,0.01,,2013-07-21 20:11:00,
2013-07-21 15:22:00,75.0,67.0,29.91,East,97,0.0,6.0,75,0.00,,,0.01,,2013-07-21 20:22:00,
2013-07-21 15:32:00,75.0,67.0,29.91,NE,55,0.0,5.0,77,0.00,,,0.01,,2013-07-21 20:32:00,
2013-07-21 15:42:00,74.0,67.0,29.91,ENE,78,1.0,8.0,78,0.00,,,0.01,,2013-07-21 20:42:00,
2013-07-21 15:52:00,74.0,67.0,29.90,ENE,73,0.0,6.0,79,0.00,,,0.01,,2013-07-21 20:52:00,
2013-07-21 16:01:00,73.0,66.0,29.91,East,97,1.0,7.0,80,0.00,,,0.01,,2013-07-21 21:01:00,
2013-07-21 16:11:00,72.0,66.0,29.89,ENE,65,1.0,5.0,81,0.00,,,0.01,,2013-07-21 21:11:00,
2013-07-21 16:22:00,71.0,65.0,29.89,ENE,70,3.0,6.0,82,0.00,,,0.01,,2013-07-21 21:22:00,
2013-07-21 16:32:00,71.0,66.0,29.88,East,88,1.0,5.0,84,0.00,,,0.01,,2013-07-21 21:32:00,
2013-07-21 16:43:00,70.0,66.0,29.90,ENE,73,1.0,6.0,86,0.00,,,0.01,,2013-07-21 21:43:00,
2013-07-21 16:52:00,69.0,65.0,29.92,East,83,0.0,2.0,88,0.00,,,0.01,,2013-07-21 21:52:00,
2013-07-21 17:01:00,69.0,66.0,29.92,East,90,0.0,4.0,90,0.02,,,0.03,,2013-07-21 22:01:00,
2013-07-21 17:11:00,69.0,67.0,29.92,North,353,0.0,0.0,92,0.04,,,0.05,,2013-07-21 22:11:00,
2013-07-21 17:22:00,68.0,66.0,29.92,NW,321,0.0,2.0,93,0.06,,,0.07,,2013-07-21 22:22:00,
2013-07-21 17:32:00,68.0,66.0,29.94,East,83,0.0,1.0,94,0.08,,,0.09,,2013-07-21 22:32:00,
2013-07-21 17:43:00,68.0,66.0,29.95,North,8,1.0,4.0,94,0.10,,,0.11,,2013-07-21 22:43:00,
2013-07-21 17:52:00,68.0,66.0,29.96,NNW,345,2.0,6.0,94,0.13,,,0.14,,2013-07-21 22:52:00,
2013-07-21 18:01:00,67.0,65.0,29.94,NNE,18,2.0,9.0,94,0.15,,,0.18,,2013-07-21 23:01:00,
2013-07-21 18:11:00,66.0,64.0,29.94,NW,324,3.0,9.0,94,0.15,,,0.20,,2013-07-21 23:11:00,
2013-07-21 18:22:00,65.0,63.0,29.95,East,94,3.0,13.0,94,0.14,,,0.21,,2013-07-21 23:22:00,
2013-07-21 18:32:00,65.0,63.0,29.95,North,6,4.0,12.0,94,0.15,,,0.24,,2013-07-21 23:32:00,
2013-07-21 18:42:00,64.0,63.0,29.96,ENE,74,2.0,8.0,95,0.15,,,0.25,,2013-07-21 23:42:00,
2013-07-21 18:52:00,64.0,63.0,29.96,NW,319,3.0,6.0,95,0.12,,,0.26,,2013-07-21 23:52:00,
2013-07-21 19:01:00,64.0,63.0,29.97,ENE,68,0.0,10.0,95,0.09,,,0.27,,2013-07-22 00:01:00,
2013-07-21 19:11:00,64.0,63.0,29.98,NNE,29,0.0,0.0,95,0.10,,,0.29,,2013-07-22 00:11:00,
2013-07-21 19:22:00,64.0,63.0,29.96,East,84,0.0,4.0,95,0.12,,,0.33,,2013-07-22 00:22:00,
2013-07-21 19:32:00,63.0,62.0,29.96,ENE,78,0.0,4.0,96,0.13,,,0.37,,2013-07-22 00:32:00,
2013-07-21 19:42:00,63.0,62.0,29.95,East,98,0.0,0.0,96,0.15,,,0.40,,2013-07-22 00:42:00,
2013-07-21 19:52:00,63.0,62.0,29.95,NNE,20,0.0,0.0,96,0.16,,,0.42,,2013-07-22 00:52:00,
2013-07-21 20:02:00,63.0,62.0,29.95,ENE,68,0.0,0.0,96,0.16,,,0.43,,2013-07-22 01:02:00,
2013-07-21 20:11:00,63.0,62.0,29.95,SSE,155,0.0,0.0,96,0.13,,,0.43,,2013-07-22 01:11:00,
2013-07-21 20:22:00,64.0,63.0,29.95,East,79,0.0,0.0,97,0.10,,,0.43,,2013-07-22 01:22:00,
2013-07-21 20:32:00,64.0,63.0,29.95,East,100,0.0,0.0,97,0.06,,,0.43,,2013-07-22 01:32:00,
2013-07-21 20:42:00,63.0,62.0,29.93,ENE,74,0.0,0.0,97,0.04,,,0.44,,2013-07-22 01:42:00,
2013-07-21 20:52:00,63.0,62.0,29.93,ENE,62,0.0,0.0,97,0.02,,,0.44,,2013-07-22 01:52:00,
2013-07-21 21:02:00,63.0,62.0,29.92,East,82,0.0,0.0,97,0.01,,,0.44,,2013-07-22 02:02:00,
2013-07-21 21:11:00,63.0,62.0,29.92,East,82,0.0,0.0,97,0.01,,,0.44,,2013-07-22 02:11:00,
2013-07-21 21:22:00,63.0,62.0,29.91,East,94,0.0,2.0,97,0.01,,,0.44,,2013-07-22 02:22:00,
2013-07-21 21:32:00,63.0,62.0,29.91,East,89,0.0,0.0,97,0.01,,,0.44,,2013-07-22 02:32:00,
2013-07-21 21:43:00,63.0,62.0,29.91,SSE,167,0.0,0.0,97,0.00,,,0.44,,2013-07-22 02:43:00,
2013-07-21 21:52:00,64.0,63.0,29.91,ESE,110,0.0,0.0,97,0.00,,,0.44,,2013-07-22 02:52:00,
2013-07-21 22:01:00,64.0,63.0,29.91,SE,142,0.0,0.0,97,0.00,,,0.44,,2013-07-22 03:01:00,
2013-07-21 22:12:00,64.0,63.0,29.91,South,171,0.0,0.0,98,0.00,,,0.44,,2013-07-22 03:12:00,
2013-07-21 22:22:00,64.0,63.0,29.91,SSE,153,0.0,0.0,97,0.00,,,0.44,,2013-07-22 03:22:00,
2013-07-21 22:33:00,64.0,63.0,29.91,South,169,0.0,0.0,97,0.00,,,0.44,,2013-07-22 03:33:00,
2013-07-21 22:43:00,64.0,63.0,29.90,SSE,155,0.0,0.0,98,0.00,,,0.44,,2013-07-22 03:43:00,
2013-07-21 22:53:00,64.0,63.0,29.90,SE,139,0.0,0.0,98,0.00,,,0.44,,2013-07-22 03:53:00,
2013-07-21 23:01:00,64.0,63.0,29.89,SSE,155,0.0,0.0,98,0.00,,,0.44,,2013-07-22 04:01:00,
2013-07-21 23:12:00,64.0,63.0,29.89,SSE,155,0.0,0.0,98,0.00,,,0.44,,2013-07-22 04:12:00,
2013-07-21 23:22:00,64.0,63.0,29.89,SSE,155,0.0,0.0,98,0.00,,,0.44,,2013-07-22 04:22:00,
2013-07-21 23:33:00,64.0,63.0,29.89,SSE,155,0.0,0.0,98,0.00,,,0.44,,2013-07-22 04:33:00,
2013-07-21 23:43:00,63.0,62.0,29.88,SSE,155,0.0,0.0,98,0.00,,,0.44,,2013-07-22 04:43:00,